Theta_e
310 310 311 311 312 318 316 315 310 315 317 311 306 307 309 311 310 310 309 310 310 310 309 309 312 312 310 312 312 312 308 307 310 310 308 309 309 310 306 315 317 309 317 320
310 310 310 310 312 316 317 315 313 313 315 309 306 309 309 311 309 309 309 309 307 306 307 310 310 311 311 310 315 315 310 305 307 311 308 308 309 309 307 303 303 309 315 313
310 311 311 311 314 315 316 314 309 312 312 309 308 309 309 310 311 310 310 308 307 306 307 306 309 309 309 309 313 315 309 304 307 308 310 308 311 311 310 306 309 309 310 312
310 311 311 312 314 313 314 313 309 309 307 308 307 307 309 311 310 310 310 309 307 308 308 308 309 308 307 308 309 309 305 310 309 308 310 311 311 312 311 311 309 311 309 312
311 312 312 314 314 313 313 315 312 311 309 309 308 306 309 310 310 309 310 310 309 308 309 309 310 309 308 307 307 305 304 310 309 310 310 311 311 311 311 311 311 311 310 312
311 312 312 315 315 314 314 313 312 312 308 307 307 308 310 311 310 311 311 310 308 310 311 310 310 310 308 307 307 305 306 305 305 308 309 309 310 310 310 311 311 312 312 312
311 312 313 312 314 314 313 313 313 313 309 308 309 311 311 310 310 311 311 311 310 311 310 309 308 308 307 307 305 303 305 305 304 307 306 305 306 308 309 312 313 310 311 310
311 312 312 313 312 313 315 315 313 313 308 309 311 311 310 310 311 311 312 311 311 310 310 305 306 304 307 306 304 303 303 304 305 305 302 307 310 308 307 309 311 308 308 307
313 311 312 312 313 312 312 315 316 315 311 309 313 311 311 307 308 308 312 311 311 309 302 302 307 303 306 308 306 304 303 302 305 303 309 310 309 307 307 308 312 305 306 305
313 313 311 312 312 312 314 313 314 316 314 314 313 311 310 311 309 306 309 311 310 307 299 299 299 300 307 301 304 306 301 302 304 308 310 310 306 306 307 310 308 305 305 304
312 313 314 313 312 311 311 314 315 314 315 315 314 314 314 312 311 307 310 307 307 302 300 299 305 306 307 304 302 305 301 298 298 307 308 305 306 305 306 305 305 305 304 303
311 314 314 314 313 312 311 314 315 315 316 314 315 315 316 316 315 313 311 308 308 307 301 300 302 306 306 303 298 305 305 300 299 300 301 304 305 305 305 305 304 304 304 303
310 313 314 314 315 314 314 315 316 315 315 314 315 314 315 316 317 313 312 310 311 310 308 304 299 298 303 303 301 304 306 304 299 301 302 303 305 305 305 304 304 304 303 303
311 313 314 314 314 315 315 315 315 315 315 313 313 317 317 317 317 314 312 313 311 311 310 306 300 301 303 300 300 300 302 305 307 306 304 305 305 305 305 305 305 305 304 303
312 313 314 314 314 314 314 315 315 315 315 314 315 314 314 315 316 315 313 313 312 311 310 307 305 305 303 302 302 300 305 303 304 302 305 305 305 306 306 307 307 306 306 306
313 313 313 313 313 314 314 316 315 315 315 315 311 314 314 316 316 315 313 313 312 312 312 311 310 310 308 305 307 305 306 306 307 306 307 307 307 307 306 306 306 306 307 306
312 312 312 312 313 314 314 316 317 316 315 315 312 311 315 317 317 315 314 313 313 313 313 312 312 311 309 308 305 308 309 309 307 307 307 307 307 307 307 307 306 306 305 304
310 310 315 316 316 315 317 317 316 316 316 314 311 310 315 317 316 316 313 313 313 313 314 312 309 309 309 310 310 311 310 310 308 308 308 307 307 307 307 307 307 307 306 305
310 311 317 317 318 318 318 318 317 315 316 315 312 310 313 317 317 317 317 317 316 315 314 313 311 309 310 309 311 311 310 309 309 308 308 308 308 307 307 307 307 307 307 306
309 312 319 320 320 318 317 315 315 315 315 314 312 313 311 315 315 315 315 315 313 316 313 309 306 306 309 311 310 308 309 310 309 309 308 307 308 308 307 307 307 307 306 306
310 319 320 318 318 316 317 317 315 314 313 313 313 313 312 316 313 315 315 310 310 313 307 312 308 307 309 311 311 309 310 310 311 310 310 310 308 309 307 306 306 307 307 306
316 315 314 314 315 317 317 318 318 317 316 316 316 316 316 316 316 315 312 314 313 313 308 310 305 304 310 311 312 312 311 311 311 310 310 310 310 309 308 307 306 307 307 306
311 313 315 317 316 316 320 316 317 318 317 318 317 316 317 316 315 312 312 315 313 308 309 307 302 310 311 311 311 311 311 311 310 310 310 309 310 309 309 308 307 307 307 306
309 316 317 320 316 317 316 318 316 319 319 318 319 318 317 315 313 310 313 309 310 314 311 303 305 312 312 312 312 312 311 311 311 311 310 310 309 308 308 308 307 306 306 306
311 317 312 316 321 321 321 321 321 321 320 320 318 316 315 312 313 309 309 312 313 309 307 305 311 312 312 312 312 311 311 310 310 310 310 310 309 308 307 307 306 306 306 306
310 313 317 319 317 319 320 321 321 320 319 319 317 312 313 313 310 312 312 311 309 308 306 311 312 312 312 312 311 311 310 310 310 309 309 309 308 308 307 307 306 306 306 304
316 319 319 318 318 319 319 321 322 320 318 313 312 314 315 310 312 312 308 309 307 310 312 312 312 312 311 310 310 310 310 309 308 308 308 308 307 307 307 306 305 306 306 304
Wind_Speed
23 24 26 25 16 8 6 10 3 15 6 8 4 3 4 8 9 14 8 4 5 4 6 6 4 4 4 21 4 4 5 4 5 2 4 5 5 3 3 4 3 2 4 2
22 24 27 25 18 9 4 6 11 18 1 4 3 4 5 10 11 7 6 7 7 6 4 5 4 4 8 20 6 2 2 4 4 3 5 5 6 4 3 4 2 2 4 4
21 24 27 23 17 11 5 4 4 13 19 8 4 3 5 4 13 7 7 5 5 6 7 8 3 4 5 13 12 12 6 3 3 6 4 3 4 4 3 5 4 1 2 2
19 23 26 19 17 14 6 6 3 3 3 9 7 5 4 5 6 7 16 6 6 3 5 4 4 5 6 7 17 7 4 4 3 5 4 3 2 1 3 1 4 4 6 1
17 20 23 16 17 18 17 5 4 6 4 4 6 6 5 5 5 5 5 5 5 7 4 2 1 2 3 2 7 5 4 3 3 2 4 0 3 5 6 5 1 2 4 3
14 17 20 17 16 13 12 14 10 5 8 4 4 3 1 2 2 7 6 3 3 4 2 3 3 3 3 2 2 3 3 4 2 3 1 2 3 4 2 2 5 2 4 2
11 13 16 16 17 16 14 11 7 5 1 3 1 1 3 4 3 4 2 5 3 3 8 7 12 14 15 17 12 3 3 3 2 2 1 3 4 3 5 1 4 6 6 9
8 9 11 13 14 14 11 10 6 3 2 1 2 5 3 3 5 3 2 5 5 9 3 4 4 4 4 6 4 7 3 4 3 3 1 2 3 4 3 3 2 7 3 9
8 6 7 8 10 10 10 9 7 4 7 3 4 3 2 3 1 4 2 1 7 3 5 4 3 1 1 3 5 5 5 6 4 2 3 3 2 3 4 4 4 10 7 8
8 7 4 5 6 7 7 8 7 2 2 5 5 3 4 4 3 2 2 2 2 3 3 3 2 0 1 1 1 4 3 3 4 2 1 2 3 5 1 3 2 12 8 12
7 8 6 5 6 5 6 5 7 5 2 5 8 7 6 5 4 3 4 2 2 4 4 3 2 2 2 1 3 1 3 3 1 3 2 5 3 2 2 2 8 9 13 13
7 8 7 6 6 5 5 5 7 8 4 4 9 11 9 7 5 5 5 1 3 4 4 2 3 2 2 4 2 2 1 5 4 6 5 4 6 3 5 7 9 13 14 16
5 6 7 6 6 5 5 6 7 8 4 7 8 9 15 15 11 5 4 4 5 4 3 7 3 3 4 4 4 4 4 7 3 3 3 8 11 5 8 5 8 8 13 19
3 5 6 6 6 6 6 7 7 3 3 1 2 5 3 8 14 14 11 3 9 10 7 3 3 3 9 4 3 4 5 8 4 4 13 18 16 11 6 9 11 13 14 18
3 5 7 7 7 7 6 5 2 3 5 3 8 11 6 14 11 17 18 14 12 11 5 2 3 5 4 2 2 3 13 7 6 6 11 5 5 4 7 11 15 17 20 24
4 6 8 9 8 6 4 1 1 3 5 4 3 6 3 2 7 16 22 18 16 11 4 4 4 4 8 4 4 9 20 18 21 4 6 4 6 9 9 12 12 15 20 21
7 8 10 9 8 5 2 1 3 2 3 3 6 9 2 7 3 7 17 18 8 6 7 8 7 10 8 3 4 6 15 17 19 18 12 10 13 10 6 10 13 14 16 17
8 9 10 8 3 2 2 1 4 3 2 2 1 5 5 4 2 1 4 5 10 7 5 2 2 2 6 4 15 12 12 15 18 19 17 16 13 13 14 16 16 16 17 20
8 8 7 2 1 1 4 4 1 5 2 1 0 1 3 3 1 1 2 3 2 2 2 1 2 1 4 7 6 13 15 16 13 14 17 18 18 17 15 14 15 16 19 19
8 6 1 1 1 3 2 2 1 4 3 4 4 4 3 2 0 1 1 1 1 1 0 3 2 3 17 15 9 12 9 15 13 11 14 14 12 10 11 11 11 14 17 16
3 1 1 2 3 1 1 2 3 3 2 5 6 9 3 3 2 3 1 2 1 1 3 1 2 3 5 10 11 6 9 12 14 17 15 12 13 8 9 11 12 13 15 14
2 2 7 5 2 2 1 2 1 3 4 5 5 4 5 2 3 1 1 1 1 3 1 0 2 4 6 10 9 6 9 12 13 11 15 17 19 16 13 13 13 15 13 12
4 2 2 2 3 1 4 4 2 2 5 7 7 4 4 4 3 3 1 2 3 2 1 2 4 12 17 10 9 10 8 9 11 11 13 13 12 15 14 14 14 14 11 11
2 2 3 3 3 5 5 4 4 3 5 9 7 4 3 3 2 3 2 1 1 2 2 4 3 16 18 12 13 12 10 10 12 16 16 14 13 13 11 11 11 10 10 11
3 3 4 6 10 8 7 8 8 8 6 6 5 4 5 2 2 1 2 2 3 4 4 3 10 16 15 14 17 17 14 12 14 15 15 16 14 13 12 10 10 9 8 8
4 6 4 8 4 7 5 6 11 9 5 6 4 3 1 2 3 2 5 3 4 3 4 10 13 15 12 15 16 14 14 19 22 19 12 18 17 17 15 12 10 8 6 4
4 7 11 17 19 17 20 12 8 9 6 3 4 4 3 4 1 2 3 4 4 6 11 13 13 12 12 12 11 14 15 17 14 12 13 14 16 18 16 14 10 8 5 3
Wind_Direction
6 5 5 3 8 34 39 46 40 3 18 44 39 48 350 21 352 25 36 76 59 60 32 40 80 89 10 344 325 41 356 102 64 66 279 41 71 86 118 124 211 52 115 263
9 8 6 4 8 23 37 64 41 20 64 79 15 6 15 41 13 19 26 34 32 34 55 90 52 53 350 13 40 46 17 24 88 358 332 5 52 350 84 104 77 31 117 220
12 13 9 10 15 21 51 56 37 28 49 51 91 51 14 35 32 51 52 38 51 48 32 15 77 27 347 360 14 35 85 73 140 170 144 162 66 358 19 97 79 173 100 323
16 16 16 20 25 20 72 60 64 49 354 13 53 61 26 22 16 30 23 39 46 54 58 37 47 7 344 358 5 26 78 102 57 47 70 80 108 71 344 75 158 138 205 160
18 22 25 31 43 53 71 88 96 80 59 28 38 16 5 40 1 34 359 74 43 47 86 130 157 29 25 10 341 36 2 153 146 156 19 67 178 254 232 265 233 170 169 203
18 26 28 37 42 48 68 76 73 90 15 20 68 321 80 28 84 47 59 31 94 50 16 253 263 231 55 48 1 23 58 118 87 184 279 149 40 318 338 284 54 25 182 333
13 25 32 31 46 49 59 67 74 84 346 70 107 47 83 81 44 123 46 42 95 354 333 103 82 97 78 60 33 41 116 85 75 192 21 159 181 347 9 247 86 46 55 358
2 15 35 24 35 40 35 51 63 97 109 124 67 64 79 73 79 62 58 42 9 340 78 76 64 5 6 20 37 24 38 117 69 110 110 304 88 356 10 22 295 70 71 2
355 341 25 14 20 28 29 41 50 89 128 250 155 130 116 147 75 2 61 7 10 49 69 55 85 98 278 327 344 35 53 70 107 66 104 194 149 258 332 152 263 40 40 1
352 334 349 342 349 15 16 23 27 64 127 180 165 167 173 153 133 156 283 337 34 41 83 78 82 154 35 43 331 346 8 9 117 164 211 292 157 276 88 123 285 330 352 334
342 332 346 329 305 333 345 351 5 6 295 222 215 197 169 166 193 151 178 67 355 66 67 105 166 145 164 96 232 172 164 122 141 114 157 281 196 18 194 278 324 329 333 332
338 331 349 347 307 310 327 328 335 331 281 256 229 226 228 243 283 201 173 287 154 153 100 130 131 146 180 172 243 165 253 174 181 177 213 197 150 200 251 270 288 310 317 325
329 324 342 350 325 322 328 327 331 331 307 286 257 249 241 245 231 243 163 199 189 176 128 146 146 146 159 183 244 190 183 166 171 41 214 214 235 258 244 269 277 314 314 321
322 331 332 343 324 322 322 328 332 5 328 313 251 214 223 222 222 215 217 226 177 166 158 124 145 159 193 195 202 172 199 159 198 254 281 276 268 252 254 277 292 296 315 317
324 329 330 326 326 318 322 337 77 54 24 295 294 297 241 240 231 215 224 232 212 174 166 142 207 165 146 175 144 233 184 182 177 212 211 191 214 241 274 290 298 303 300 304
324 316 313 315 315 307 319 304 244 341 8 351 330 331 359 340 223 223 226 232 218 188 196 212 210 251 183 156 208 245 208 213 214 191 177 227 261 273 282 285 296 313 312 310
320 323 321 313 308 286 251 346 337 323 15 342 317 325 309 335 312 220 224 226 217 223 225 210 209 187 209 161 221 237 218 225 223 222 234 251 254 260 266 288 301 302 308 313
318 314 322 324 305 168 89 340 295 257 296 320 336 283 332 4 25 165 189 196 221 228 230 182 183 218 227 236 242 246 232 224 218 220 229 245 261 268 277 288 285 290 297 302
314 317 325 113 74 60 346 346 14 201 234 5 15 256 279 341 25 81 152 194 205 162 235 270 210 354 216 238 266 248 219 197 205 213 229 243 256 270 275 282 282 288 299 301
299 313 240 205 360 336 13 356 196 170 195 216 222 220 252 236 241 289 145 167 235 272 226 333 43 275 252 260 274 269 234 207 204 209 226 231 246 269 258 270 290 302 309 305
273 234 238 241 279 294 223 242 203 169 244 219 232 217 253 230 151 204 186 164 190 173 262 286 308 275 262 208 257 227 213 213 229 240 258 267 258 275 280 273 290 299 300 312
171 271 281 270 209 204 257 244 185 201 240 205 197 223 219 224 210 147 154 222 129 250 46 357 266 254 316 238 245 253 242 236 241 254 265 266 263 261 273 268 285 300 292 292
289 217 230 205 175 216 205 223 242 240 211 194 187 197 182 165 184 105 136 234 224 127 71 249 233 295 327 325 272 268 257 250 252 262 268 283 273 259 261 274 293 291 277 284
241 198 263 207 228 237 201 203 200 211 211 188 195 159 168 178 138 127 150 230 130 235 250 244 255 334 331 337 328 302 275 274 278 279 270 272 270 268 257 272 294 277 274 280
238 197 228 225 238 264 272 271 258 270 254 196 143 122 174 190 128 162 104 187 236 203 232 234 304 331 327 322 323 314 301 286 285 274 265 270 263 253 256 265 275 265 270 277
231 229 254 254 268 278 261 263 300 302 205 159 154 128 163 193 139 159 215 151 226 244 222 285 319 323 322 320 320 317 305 298 299 294 275 278 266 256 249 249 254 244 248 251
231 245 244 257 273 272 285 280 250 231 205 181 150 165 186 111 71 260 189 211 218 264 302 314 310 311 322 328 328 330 322 315 314 294 294 289 271 260 234 225 242 207 202 225